New York, NY

8:58 AM EDT on July 26, 2016 (GMT -0400)
Central Park

Weather History for KNYC - February, 2014

Change the Weather History Date:

Monday, February 10, 2014

  Actual Average Record
Temperature  
Mean Temperature 25 °F 34 °F  
Max Temperature 29 °F 41 °F 61 °F (2001)
Min Temperature 21 °F 28 °F -6 °F (1899)
Degree Days  
Heating Degree Days 40 31  
Month to date heating degree days 334 313  
Since 1 July heating degree days 3077 3002  
Cooling Degree Days 0 0  
Month to date cooling degree days 0 0  
Year to date cooling degree days 0 0  
Moisture  
Dew Point 9 °F    
Average Humidity 57    
Maximum Humidity 75    
Minimum Humidity 38    
Precipitation  
Precipitation 0.00 in 0.11 in 2.63 in (1970)
Month to date precipitation 2.70 1.08  
Year to date precipitation 5.49 4.73  
Snow  
Snow 0.00 in 0.30 in 10.40 in (1926)
Month to date snowfall 13.2 3.2  
Since 1 July snowfall 41.5 15.3  
Snow Depth 10.00 in    
Sea Level Pressure  
Sea Level Pressure 30.14 in    
Wind  
Wind Speed 7 mph (NW)    
Max Wind Speed 15 mph    
Max Gust Speed 26 mph    
Visibility 9 miles    
Events      
T = Trace of Precipitation, MM = Missing Value Source: NWS Daily Summary

Daily Weather History Graph

Daily Weather History Graph

Search for Another Location

Airport or City:

Trip Planner

Search our weather history database for the weather conditions in past years. The results will help you decide how hot, cold, wet, or windy it might be!

Date:

Astronomy

Feb. 10, 2014 Rise Set
Actual Time 6:56 AM EST 5:24 PM EST
Civil Twilight 6:27 AM EST 5:52 PM EST
Nautical Twilight 5:55 AM EST 6:25 PM EST
Astronomical Twilight 5:23 AM EST 6:57 PM EST
Moon 1:50 PM EST (2/10) 3:48 AM EST (2/10)
Length of Visible Light 11h 25m
Length of Day
10h 28m
Waxing Gibbous, 84% of the Moon is Illuminated
Feb 10
Waxing Gibbous
Feb 14
Full
Feb 22
Last Quarter
Mar 1
New
Mar 8
First Quarter

Hourly Weather History & Observations

Time (EST) Temp. Windchill Dew Point Humidity Pressure Visibility Wind Dir Wind Speed Gust Speed Precip Events Conditions
12:51 AM 25.0 °F 17.1 °F 18.0 °F 75% 29.99 in 7.0 mi Variable 6.9 mph - N/A   Clear
1:51 AM 25.0 °F 15.5 °F 17.1 °F 72% 30.00 in 7.0 mi WNW 9.2 mph - N/A   Clear
2:51 AM 25.0 °F 17.1 °F 15.1 °F 66% 30.00 in 8.0 mi West 6.9 mph - N/A   Clear
3:51 AM 24.1 °F - 14.0 °F 65% 30.02 in 8.0 mi North - - N/A   Clear
4:51 AM 23.0 °F 14.7 °F 10.9 °F 60% 30.05 in 9.0 mi Variable 6.9 mph - N/A   Clear
5:51 AM 21.9 °F 17.2 °F 10.0 °F 60% 30.07 in 10.0 mi Variable 3.5 mph - N/A   Clear
6:51 AM 21.0 °F 14.6 °F 9.0 °F 60% 30.10 in 10.0 mi Variable 4.6 mph - N/A   Clear
7:51 AM 21.0 °F 12.4 °F 9.0 °F 60% 30.15 in 8.0 mi WNW 6.9 mph 17.3 mph N/A   Clear
8:51 AM 21.0 °F 10.6 °F 8.1 °F 57% 30.16 in 8.0 mi WNW 9.2 mph 21.9 mph N/A   Clear
9:51 AM 21.9 °F - 7.0 °F 53% 30.16 in 9.0 mi North - - N/A   Clear
10:51 AM 24.1 °F 14.4 °F 8.1 °F 51% 30.14 in 10.0 mi NW 9.2 mph 17.3 mph N/A   Clear
11:51 AM 26.1 °F 16.2 °F 6.1 °F 43% 30.14 in 10.0 mi NW 10.4 mph 18.4 mph N/A   Clear
12:51 PM 28.0 °F 18.1 °F 6.1 °F 39% 30.13 in 10.0 mi NW 11.5 mph 18.4 mph N/A   Clear
1:51 PM 28.0 °F 19.3 °F 6.1 °F 39% 30.12 in 10.0 mi WNW 9.2 mph - N/A   Scattered Clouds
2:51 PM 28.9 °F 21.1 °F 7.0 °F 40% 30.12 in 10.0 mi WNW 8.1 mph - N/A   Scattered Clouds
3:51 PM 28.0 °F 22.8 °F 7.0 °F 41% 30.13 in 10.0 mi Variable 4.6 mph - N/A   Clear
4:51 PM 27.0 °F 19.5 °F 6.1 °F 41% 30.15 in 10.0 mi Variable 6.9 mph - N/A   Clear
5:51 PM 26.1 °F 20.5 °F 6.1 °F 43% 30.18 in 10.0 mi Variable 4.6 mph - N/A   Clear
6:51 PM 26.1 °F 18.4 °F 5.0 °F 41% 30.22 in 10.0 mi NW 6.9 mph - N/A   Clear
7:51 PM 25.0 °F 17.1 °F 6.1 °F 45% 30.22 in 10.0 mi NW 6.9 mph - N/A   Clear
8:51 PM 25.0 °F 15.5 °F 6.1 °F 45% 30.23 in 10.0 mi NW 9.2 mph 16.1 mph N/A   Clear
9:51 PM 24.1 °F 18.2 °F 6.1 °F 46% 30.26 in 10.0 mi WNW 4.6 mph - N/A   Clear
10:51 PM 23.0 °F 14.7 °F 7.0 °F 50% 30.27 in 10.0 mi NW 6.9 mph - N/A   Clear
11:51 PM 21.9 °F 14.5 °F 7.0 °F 53% 30.27 in 10.0 mi WNW 5.8 mph - N/A   Clear